Tracking 25734 objects as of 27-May-2022
HD Live streaming from Space Station
objects crossing your sky now

COSMOS 1823 DEB

Track COSMOS 1823 DEB now!
10-day predictions


NORAD ID: 39814
Int'l Code: 1987-020EN
Perigee: 1,480.6 km
Apogee: 1,522.6 km
Inclination: 73.6 °
Period: 115.9 minutes
Semi major axis: 7872 km
RCS: 0.0157 m2 (small)
Launch date: February 20, 1987
Source: Commonwealth of Independent States (former USSR) (CIS)
Launch site: PLESETSK MISSILE AND SPACE COMPLEX (PKMTR)

Note: This is SATELLITE DEBRIS
aabbcc
Your satellite tracking list
Your tracking list is empty




NASA's NSSDC Master Catalog

Two Line Element Set (TLE):
1 39814U 87020EN  22147.53725167  .00000054  00000-0  51444-3 0  9994
2 39814  73.6129 213.6472 0026666 157.9777 202.2420 12.42872055793411
Source of the keplerian elements: AFSPC